Location: Peebles
(55.6412°N, 3.1714°W)
Time: 08:44:24
(UTC+01:00)

Landsat 7 - Pass Details

Date: 26 September 2021
Orbit: 701 x 703 km, 98.0° (Epoch: 20 October)

Event Time Altitude Azimuth Distance (km) Brightness Sun altitude
Exits shadow 21:53:39 43° 197° (SSW) 983 4.4 -23.8°
Maximum altitude 21:55:01 63° 258° (WSW) 788 4.1 -24.0°
Drops below altitude 10° 21:59:46 10° 340° (NNW) 2,184 7.1 -24.5°
Sets 22:02:04 0° 344° (NNW) 3,106 8.0 -24.8°
